Regional Weather Roundup
Issued by NWS

Home | Current Version | Previous Version | Graphics & Text | Print | Product List | Glossary On
Versions: 1 2 3 4 5 6 7 8 9 10 11 12 13 14 15 16 17 18 19 20 21 22 23 24 25 26 27 28 29 30 31 32 33 34 35 36 37 38 39 40 41 42 43 44 45 46 47 48 49 50
000
ASUS45 KTFX 020010
RWRMT
MONTANA REGIONAL WEATHER ROUNDUP
NATIONAL WEATHER SERVICE GREAT FALLS MT
600 PM MDT MON JUN 01 2015

NOTE: "FAIR" INDICATES FEW OR NO CLOUDS BELOW 12000 FEET WITH NO
SIGNIFICANT WEATHER AND/OR OBSTRUCTIONS TO VISIBILITY.

MTZ001>007-043-020100-
WEST OF THE DIVIDE

CITY           SKY/WX    TMP DP  RH WIND       PRES   REMARKS
KALISPELL      CLOUDY    77  44  30 S9        29.77R
MISSOULA       CLOUDY    61  52  72 SE3       29.88F
BUTTE          LGT RAIN  55  50  84 NE8       29.93F
MULLAN PASS    LGT RAIN  57  45  64 NW3       29.93S
DEER LODGE       N/A     63  48  59 CALM      29.96F
EUREKA           N/A     79  43  27 W5        29.75F
HAMILTON         N/A     66  50  55 N8        29.86F
LIBBY            N/A     59  55  88 E6        29.84R VSB 1/2
PLAINS           N/A     62  54  75 N2        29.85R
RONAN            N/A     69  52  54 SE10      29.88S
$$

MTZ008-052>055-020100-
SOUTHWEST MONTANA

CITY           SKY/WX    TMP DP  RH WIND       PRES   REMARKS
BOZEMAN        CLOUDY    60  52  74 NE3       29.98R
DILLON         CLOUDY    57  48  72 E14       29.94F
W YELLOWSTONE  CLOUDY    59  43  55 W8        29.97R
THREE FORKS      N/A     64  18  17 SW13      29.93R
$$

MTZ009-010-012-014-046-048-049-054-020100-
EAST SLOPES AND CENTRAL MONTANA

CITY           SKY/WX    TMP DP  RH WIND       PRES   REMARKS
CUT BANK       CLOUDY    73  43  33 SE12      29.87R
GREAT FALLS    CLOUDY    68  49  50 N8        29.86R
HELENA         CLOUDY    61  54  77 W6        29.91R
CONRAD           N/A     72  55  54 NE1       29.90F
$$

MTZ011-013-016-021-045-047-050-051-020100-
NORTH CENTRAL MONTANA

CITY           SKY/WX    TMP DP  RH WIND       PRES   REMARKS
HAVRE          PTSUNNY   80  46  30 NE16G23   29.82S
LEWISTOWN      PTSUNNY   68  54  60 SE8       29.85F
N BAR RANCH    FAIR      68  54  60 NW3       29.89F
CHINOOK          N/A     79  45  29 NE10G18   29.81F
FORT BENTON      N/A     73  48  40 NE3       29.83R
$$

MTZ017>020-022>027-061-062-020100-
NORTHEAST MONTANA

CITY           SKY/WX    TMP DP  RH WIND       PRES   REMARKS
GLASGOW        MOSUNNY   80  52  37 NE18      29.78S
JORDAN           N/A     83  48  29 N13       29.80S
SIDNEY         MOSUNNY   88  55  33 CALM      29.74S
WOLF POINT     PTSUNNY   88  52  29 N6        29.76S
MALTA            N/A     78  49  36 N10       29.80S
PLENTYWOOD       N/A     81  52  36 N15       29.78S
POPLAR           N/A     86  54  32 N7        29.76S
SCOBEY           N/A     77  49  37 N15       29.83R
$$

MTZ028>42-056>058-020100-
SOUTHCENTRAL AND SOUTHEAST MONTANA

CITY           SKY/WX    TMP DP  RH WIND       PRES   REMARKS
BAKER          PTSUNNY   84  50  30 CALM      29.80F
BILLINGS       TSTM      67  55  65 NW15G30   29.82R
LIVINGSTON     CLOUDY    64  47  53 W13G28    29.91R
MILES CITY     MOSUNNY   86  48  26 E5        29.76F
BIG TIMBER       N/A     64  48  55 W17G33    29.86R
EKALAKA          N/A     81  55  40 E1        29.83F
FORSYTH          N/A     84  48  28 E6        29.75F
LAUREL           N/A     68  45  43 N8        29.82F
ROUNDUP          N/A     76  50  40 NE10      29.73F
$$

REGIONAL REPORTS...DAKOTAS

CITY           SKY/WX    TMP DP  RH WIND       PRES   REMARKS
WILLISTON      PTSUNNY   87  52  29 N17       29.74S
MINOT          PTSUNNY   81  56  42 S10G20    29.75S
DICKINSON      MOSUNNY   83  60  45 SE15G21   29.78F
BEACH          FAIR      84  50  30 CALM      29.79S
CROSBY         FAIR      82  54  36 NE13      29.77F
WATFORD CITY   FAIR      84  52  32 N9G17     29.72F
BISMARCK       PTSUNNY   80  58  46 S14G25    29.81F
GRAND FORKS    MOSUNNY   73  48  41 S21G30    29.91F
FARGO          SUNNY     74  47  38 S21G32    29.94F
BUFFALO SD       N/A     81  61  50 SE10      29.74F
RAPID CITY     PTSUNNY   82  59  45 SE14      29.81F
$$

REGIONAL REPORTS...WYOMING/IDAHO/WASHINGTON

CITY           SKY/WX    TMP DP  RH WIND       PRES   REMARKS
GILLETTE         N/A     82  56  40 S7        29.82F
SHERIDAN       PTSUNNY   77  62  59 W7        29.80F
BUFFALO WY     PTSUNNY   75  57  53 NW9       29.87F
CODY           CLOUDY    68  45  42 S8        29.87F
YELLOWSTONE LA   N/A     61  39  44 VRB3      30.03F
IDAHO FALLS    LGT RAIN  60  46  59 W14G30    30.05R
SALMON           N/A     64  46  52 SW13G18   29.92S
BOISE          PTSUNNY   83  41  22 E9G17     29.76F
SPOKANE        PTSUNNY   79  50  36 SW6       29.75F
$$

REGIONAL REPORTS...ALBERTA

CITY           SKY/WX    TMP DP  RH WIND       PRES   REMARKS
CALGARY        PTSUNNY   72  39  30 SE3       29.90S
LETHBRIDGE     PTSUNNY   75  41  29 E9G20     29.86S
MEDICINE HAT   PTSUNNY   79  36  21 NE9G18    29.85F
$$

REGIONAL REPORTS...SASKATCHEWAN

CITY           SKY/WX    TMP DP  RH WIND       PRES   REMARKS
SWIFT CURRENT  SUNNY     75  30  19 N15G21    29.89R
REGINA         MOSUNNY   73  45  35 N14       29.85R
SASKATOON      MOSUNNY   70  45  40 NW14G22   29.90R
$$



USA.gov is the U.S. government's official web portal to all federal, state and local government web resources and services.